Time,TemperatureF,DewpointF,PressureIn,WindDirection,WindDirectionDegrees,WindSpeedMPH,WindSpeedGustMPH,Humidity,HourlyPrecipIn,Conditions,Clouds,dailyrainin,SolarRadiationWatts/m^2,SoftwareType,DateUTC
2013-08-09 00:10:00,67.3,63.0,23.18,SSW,211,0.0,0.0,86,0.00,,,0.00,0,Wunderground v.1.15,2013-08-09 04:10:00,
2013-08-09 00:20:00,67.0,62.7,23.18,SSW,211,0.0,0.0,86,0.00,,,0.00,0,Wunderground v.1.15,2013-08-09 04:20:00,
2013-08-09 00:40:00,66.2,62.2,23.18,SSW,211,0.0,0.0,87,0.00,,,0.00,0,Wunderground v.1.15,2013-08-09 04:40:00,
2013-08-09 00:50:00,65.9,62.2,23.18,SSW,211,0.0,0.0,88,0.00,,,0.00,0,Wunderground v.1.15,2013-08-09 04:50:00,
2013-08-09 01:10:00,65.7,62.0,23.18,SSW,211,0.0,0.0,88,0.00,,,0.00,0,Wunderground v.1.15,2013-08-09 05:10:00,
2013-08-09 01:20:00,65.5,62.2,23.18,South,169,1.0,1.0,89,0.00,,,0.00,0,Wunderground v.1.15,2013-08-09 05:20:00,
2013-08-09 01:31:00,65.5,62.2,23.18,South,169,0.0,0.0,89,0.00,,,0.00,0,Wunderground v.1.15,2013-08-09 05:31:00,
2013-08-09 01:40:00,65.4,61.8,23.18,South,169,0.0,0.0,88,0.00,,,0.00,0,Wunderground v.1.15,2013-08-09 05:40:00,
2013-08-09 01:50:00,65.1,61.5,23.18,South,169,0.0,0.0,88,0.00,,,0.00,0,Wunderground v.1.15,2013-08-09 05:50:00,
2013-08-09 02:10:00,64.4,61.1,23.18,South,169,0.0,0.0,89,0.00,,,0.00,0,Wunderground v.1.15,2013-08-09 06:10:00,
2013-08-09 02:20:00,63.9,60.6,23.18,South,169,0.0,0.0,89,0.00,,,0.00,0,Wunderground v.1.15,2013-08-09 06:20:00,
2013-08-09 02:40:00,63.9,61.2,23.18,South,169,0.0,0.0,91,0.00,,,0.00,0,Wunderground v.1.15,2013-08-09 06:40:00,
2013-08-09 02:50:00,63.9,61.2,23.18,South,169,0.0,0.0,91,0.00,,,0.00,0,Wunderground v.1.15,2013-08-09 06:50:00,
2013-08-09 03:10:00,63.8,61.1,23.18,South,169,0.0,0.0,91,0.00,,,0.00,0,Wunderground v.1.15,2013-08-09 07:10:00,
2013-08-09 03:20:00,63.9,61.5,23.18,South,169,0.0,0.0,92,0.00,,,0.00,0,Wunderground v.1.15,2013-08-09 07:20:00,
2013-08-09 03:40:00,64.9,62.5,23.18,South,169,0.0,0.0,92,0.00,,,0.00,0,Wunderground v.1.15,2013-08-09 07:40:00,
2013-08-09 03:50:00,65.9,62.9,23.18,South,169,0.0,0.0,90,0.00,,,0.00,0,Wunderground v.1.15,2013-08-09 07:50:00,
2013-08-09 04:10:00,65.1,61.8,23.17,South,169,0.0,0.0,89,0.00,,,0.00,0,Wunderground v.1.15,2013-08-09 08:10:00,
2013-08-09 04:20:00,64.4,61.1,23.17,South,169,0.0,0.0,89,0.00,,,0.00,0,Wunderground v.1.15,2013-08-09 08:20:00,
2013-08-09 04:30:00,64.1,61.1,23.17,South,169,0.0,0.0,90,0.00,,,0.00,0,Wunderground v.1.15,2013-08-09 08:30:00,
2013-08-09 04:40:00,64.1,61.1,23.17,South,169,0.0,0.0,90,0.00,,,0.00,0,Wunderground v.1.15,2013-08-09 08:40:00,
2013-08-09 04:50:00,63.8,60.8,23.17,South,169,0.0,0.0,90,0.00,,,0.00,0,Wunderground v.1.15,2013-08-09 08:50:00,
2013-08-09 05:10:00,63.4,60.7,23.17,SSE,157,0.0,0.0,91,0.00,,,0.00,0,Wunderground v.1.15,2013-08-09 09:10:00,
2013-08-09 05:20:00,63.1,60.4,23.17,SSE,157,0.0,0.0,91,0.00,,,0.00,0,Wunderground v.1.15,2013-08-09 09:20:00,
2013-08-09 05:40:00,63.0,60.6,23.17,SSE,157,0.0,0.0,92,0.00,,,0.00,0,Wunderground v.1.15,2013-08-09 09:40:00,
2013-08-09 05:50:00,62.8,60.4,23.17,SSE,157,0.0,0.0,92,0.00,,,0.00,0,Wunderground v.1.15,2013-08-09 09:50:00,
2013-08-09 06:10:00,63.0,60.6,23.17,SSE,157,0.0,0.0,92,0.00,,,0.00,14,Wunderground v.1.15,2013-08-09 10:10:00,
2013-08-09 06:20:00,63.0,60.6,23.17,SSE,157,0.0,0.0,92,0.00,,,0.00,21,Wunderground v.1.15,2013-08-09 10:20:00,
2013-08-09 06:40:00,63.1,60.7,23.17,SSE,157,0.0,0.0,92,0.00,,,0.00,39,Wunderground v.1.15,2013-08-09 10:40:00,
2013-08-09 06:50:00,63.3,60.9,23.17,SSE,157,0.0,0.0,92,0.00,,,0.00,28,Wunderground v.1.15,2013-08-09 10:50:00,
2013-08-09 07:01:00,63.6,61.2,23.17,SSE,157,0.0,1.0,92,0.00,,,0.00,35,Wunderground v.1.15,2013-08-09 11:01:00,
2013-08-09 07:10:00,63.9,61.5,23.17,SSE,157,0.0,1.0,92,0.00,,,0.00,46,Wunderground v.1.15,2013-08-09 11:10:00,
2013-08-09 07:20:00,64.4,62.0,23.17,SSE,157,0.0,0.0,92,0.00,,,0.00,62,Wunderground v.1.15,2013-08-09 11:20:00,
2013-08-09 07:30:00,64.9,62.2,23.17,SSE,154,0.0,0.0,91,0.00,,,0.00,83,Wunderground v.1.15,2013-08-09 11:30:00,
2013-08-09 07:40:00,65.2,62.2,23.17,SSE,155,0.0,0.0,90,0.00,,,0.00,97,Wunderground v.1.15,2013-08-09 11:40:00,
2013-08-09 07:50:00,65.5,62.2,23.17,SSE,154,0.0,0.0,89,0.00,,,0.00,114,Wunderground v.1.15,2013-08-09 11:50:00,
2013-08-09 08:10:00,66.2,62.2,23.17,SE,137,1.0,1.0,87,0.00,,,0.00,148,Wunderground v.1.15,2013-08-09 12:10:00,
2013-08-09 08:20:00,66.5,62.5,23.17,SE,137,0.0,0.0,87,0.00,,,0.00,158,Wunderground v.1.15,2013-08-09 12:20:00,
2013-08-09 08:40:00,67.0,63.0,23.17,SE,134,0.0,0.0,87,0.00,,,0.00,221,Wunderground v.1.15,2013-08-09 12:40:00,
2013-08-09 08:50:00,67.3,63.3,23.17,SE,133,1.0,1.0,87,0.00,,,0.00,229,Wunderground v.1.15,2013-08-09 12:50:00,
2013-08-09 09:00:00,67.8,63.5,23.17,SE,133,0.0,0.0,86,0.00,,,0.00,276,Wunderground v.1.15,2013-08-09 13:00:00,
2013-08-09 09:10:00,68.2,63.5,23.17,SE,133,0.0,1.0,85,0.00,,,0.00,295,Wunderground v.1.15,2013-08-09 13:10:00,
2013-08-09 09:20:00,68.3,63.6,23.17,ESE,121,1.0,1.0,85,0.00,,,0.00,271,Wunderground v.1.15,2013-08-09 13:20:00,
2013-08-09 09:40:00,69.5,64.5,23.17,ESE,120,0.0,0.0,84,0.00,,,0.00,283,Wunderground v.1.15,2013-08-09 13:40:00,
2013-08-09 09:50:00,69.8,64.4,23.17,ESE,113,0.0,0.0,83,0.00,,,0.00,236,Wunderground v.1.15,2013-08-09 13:50:00,
2013-08-09 10:10:00,69.7,64.3,23.17,ESE,113,0.0,0.0,83,0.00,,,0.00,279,Wunderground v.1.15,2013-08-09 14:10:00,
2013-08-09 10:20:00,70.2,64.8,23.17,ESE,113,0.0,0.0,83,0.00,,,0.00,271,Wunderground v.1.15,2013-08-09 14:20:00,
2013-08-09 10:40:00,70.8,65.0,23.17,ESE,113,1.0,1.0,82,0.00,,,0.00,336,Wunderground v.1.15,2013-08-09 14:40:00,
2013-08-09 10:50:00,71.2,65.1,23.17,East,89,1.0,1.0,81,0.00,,,0.00,387,Wunderground v.1.15,2013-08-09 14:50:00,
2013-08-09 11:01:00,71.9,65.4,23.17,East,89,0.0,4.0,80,0.00,,,0.00,408,Wunderground v.1.15,2013-08-09 15:01:00,
2013-08-09 11:10:00,72.2,65.0,23.17,East,89,1.0,4.0,78,0.00,,,0.00,329,Wunderground v.1.15,2013-08-09 15:10:00,
2013-08-09 11:20:00,72.2,65.0,23.17,East,88,1.0,1.0,78,0.00,,,0.00,320,Wunderground v.1.15,2013-08-09 15:20:00,
2013-08-09 11:40:00,71.9,65.0,23.17,ENE,73,1.0,2.0,79,0.00,,,0.00,260,Wunderground v.1.15,2013-08-09 15:40:00,
2013-08-09 11:50:00,71.9,65.0,23.16,ENE,73,1.0,1.0,79,0.00,,,0.00,434,Wunderground v.1.15,2013-08-09 15:50:00,
2013-08-09 12:01:00,72.7,65.4,23.16,ENE,73,1.0,1.0,78,0.00,,,0.00,355,Wunderground v.1.15,2013-08-09 16:01:00,
2013-08-09 12:10:00,73.4,65.7,23.16,ENE,73,0.0,1.0,77,0.00,,,0.00,404,Wunderground v.1.15,2013-08-09 16:10:00,
2013-08-09 12:20:00,73.9,65.9,23.16,ENE,73,0.0,0.0,76,0.00,,,0.00,308,Wunderground v.1.15,2013-08-09 16:20:00,
2013-08-09 12:40:00,73.2,65.2,23.16,ENE,73,0.0,0.0,76,0.00,,,0.00,251,Wunderground v.1.15,2013-08-09 16:40:00,
2013-08-09 12:50:00,73.2,65.2,23.16,ENE,73,0.0,0.0,76,0.00,,,0.00,287,Wunderground v.1.15,2013-08-09 16:50:00,
2013-08-09 13:10:00,72.7,65.1,23.16,ENE,73,0.0,0.0,77,0.00,,,0.00,183,Wunderground v.1.15,2013-08-09 17:10:00,
2013-08-09 13:20:00,72.9,65.3,23.16,ENE,73,0.0,0.0,77,0.00,,,0.00,417,Wunderground v.1.15,2013-08-09 17:20:00,
2013-08-09 13:40:00,74.3,65.9,23.16,ENE,73,0.0,3.0,75,0.00,,,0.00,383,Wunderground v.1.15,2013-08-09 17:40:00,
2013-08-09 13:50:00,74.1,65.7,23.16,ENE,72,1.0,4.0,75,0.00,,,0.00,355,Wunderground v.1.15,2013-08-09 17:50:00,
2013-08-09 14:10:00,75.0,65.0,23.16,ENE,70,0.0,0.0,71,0.00,,,0.00,656,Wunderground v.1.15,2013-08-09 18:10:00,
2013-08-09 14:20:00,75.5,65.0,23.16,ENE,71,1.0,1.0,70,0.00,,,0.00,373,Wunderground v.1.15,2013-08-09 18:20:00,
2013-08-09 14:30:00,75.9,65.0,23.16,ENE,69,0.0,0.0,69,0.00,,,0.00,362,Wunderground v.1.15,2013-08-09 18:30:00,
2013-08-09 14:40:00,76.0,65.1,23.16,ENE,69,0.0,0.0,69,0.00,,,0.00,422,Wunderground v.1.15,2013-08-09 18:40:00,
2013-08-09 14:50:00,75.9,64.6,23.16,ENE,69,0.0,1.0,68,0.00,,,0.00,381,Wunderground v.1.15,2013-08-09 18:50:00,
2013-08-09 15:10:00,78.2,65.5,23.15,East,88,1.0,1.0,65,0.00,,,0.00,496,Wunderground v.1.15,2013-08-09 19:10:00,
2013-08-09 15:20:00,78.2,63.2,23.15,East,85,0.0,0.0,60,0.00,,,0.00,754,Wunderground v.1.15,2013-08-09 19:20:00,
2013-08-09 15:40:00,78.0,64.4,23.15,ENE,65,1.0,1.0,63,0.00,,,0.00,302,Wunderground v.1.15,2013-08-09 19:40:00,
2013-08-09 15:50:00,77.3,64.2,23.15,ENE,67,1.0,2.0,64,0.00,,,0.00,244,Wunderground v.1.15,2013-08-09 19:50:00,
2013-08-09 16:00:00,77.6,64.0,23.15,ENE,67,1.0,1.0,63,0.00,,,0.00,759,Wunderground v.1.15,2013-08-09 20:00:00,
2013-08-09 16:10:00,78.9,63.4,23.15,ENE,67,0.0,0.0,59,0.00,,,0.00,165,Wunderground v.1.15,2013-08-09 20:10:00,
2013-08-09 16:20:00,80.0,63.4,23.15,ENE,64,0.0,1.0,57,0.00,,,0.00,631,Wunderground v.1.15,2013-08-09 20:20:00,
2013-08-09 16:40:00,81.3,62.5,23.15,ESE,113,1.0,3.0,53,0.00,,,0.00,559,Wunderground v.1.15,2013-08-09 20:40:00,
2013-08-09 16:50:00,79.8,62.2,23.15,SSE,159,2.0,2.0,55,0.00,,,0.00,517,Wunderground v.1.15,2013-08-09 20:50:00,
2013-08-09 17:10:00,80.4,63.3,23.15,South,177,2.0,2.0,56,0.00,,,0.00,464,Wunderground v.1.15,2013-08-09 21:10:00,
2013-08-09 17:20:00,80.2,63.1,23.15,SSW,202,3.0,3.0,56,0.00,,,0.00,427,Wunderground v.1.15,2013-08-09 21:20:00,
2013-08-09 17:30:00,81.0,62.3,23.15,SSW,208,1.0,1.0,53,0.00,,,0.00,394,Wunderground v.1.15,2013-08-09 21:30:00,
2013-08-09 17:40:00,80.8,62.1,23.15,South,176,3.0,3.0,53,0.00,,,0.00,367,Wunderground v.1.15,2013-08-09 21:40:00,
2013-08-09 17:50:00,80.8,62.1,23.15,SSW,199,2.0,5.0,53,0.00,,,0.00,329,Wunderground v.1.15,2013-08-09 21:50:00,
2013-08-09 18:10:00,80.2,62.6,23.15,SW,217,2.0,6.0,55,0.00,,,0.00,272,Wunderground v.1.15,2013-08-09 22:10:00,
2013-08-09 18:20:00,79.8,62.2,23.14,WSW,238,4.0,5.0,55,0.00,,,0.00,237,Wunderground v.1.15,2013-08-09 22:20:00,
2013-08-09 18:40:00,79.3,63.2,23.14,SW,232,2.0,2.0,58,0.00,,,0.00,153,Wunderground v.1.15,2013-08-09 22:40:00,
2013-08-09 18:50:00,79.1,63.1,23.14,WSW,242,2.0,2.0,58,0.00,,,0.00,156,Wunderground v.1.15,2013-08-09 22:50:00,
2013-08-09 19:10:00,78.0,63.5,23.14,West,269,1.0,1.0,61,0.00,,,0.00,109,Wunderground v.1.15,2013-08-09 23:10:00,
2013-08-09 19:20:00,77.6,63.1,23.14,SW,234,2.0,2.0,61,0.00,,,0.00,65,Wunderground v.1.15,2013-08-09 23:20:00,
2013-08-09 19:40:00,76.4,63.8,23.14,SW,229,2.0,2.0,65,0.00,,,0.00,25,Wunderground v.1.15,2013-08-09 23:40:00,
2013-08-09 19:50:00,75.7,63.5,23.14,SW,236,1.0,1.0,66,0.00,,,0.00,16,Wunderground v.1.15,2013-08-09 23:50:00,
2013-08-09 20:10:00,74.8,63.9,23.14,SW,236,0.0,1.0,69,0.00,,,0.00,5,Wunderground v.1.15,2013-08-10 00:10:00,
2013-08-09 20:20:00,74.6,63.8,23.14,WSW,239,0.0,0.0,69,0.00,,,0.00,0,Wunderground v.1.15,2013-08-10 00:20:00,
2013-08-09 20:40:00,73.9,63.9,23.14,WSW,244,0.0,0.0,71,0.00,,,0.00,0,Wunderground v.1.15,2013-08-10 00:40:00,
2013-08-09 20:50:00,73.6,63.6,23.14,WSW,248,1.0,1.0,71,0.00,,,0.00,0,Wunderground v.1.15,2013-08-10 00:50:00,
2013-08-09 21:10:00,72.9,63.3,23.14,WSW,240,1.0,1.0,72,0.00,,,0.00,0,Wunderground v.1.15,2013-08-10 01:10:00,
2013-08-09 21:20:00,72.9,63.3,23.14,WSW,241,2.0,3.0,72,0.00,,,0.00,0,Wunderground v.1.15,2013-08-10 01:20:00,
2013-08-09 21:40:00,72.7,63.1,23.14,WSW,254,2.0,2.0,72,0.00,,,0.00,0,Wunderground v.1.15,2013-08-10 01:40:00,
2013-08-09 21:50:00,72.4,63.3,23.14,SW,230,1.0,1.0,73,0.00,,,0.00,0,Wunderground v.1.15,2013-08-10 01:50:00,
2013-08-09 22:10:00,71.7,63.4,23.14,SW,225,1.0,1.0,75,0.00,,,0.00,0,Wunderground v.1.15,2013-08-10 02:10:00,
2013-08-09 22:20:00,71.5,63.2,23.14,WSW,252,1.0,1.0,75,0.00,,,0.00,0,Wunderground v.1.15,2013-08-10 02:20:00,
2013-08-09 22:40:00,71.0,62.7,23.14,West,263,1.0,1.0,75,0.00,,,0.00,0,Wunderground v.1.15,2013-08-10 02:40:00,
2013-08-09 22:50:00,70.5,62.2,23.14,SW,236,1.0,3.0,75,0.00,,,0.00,0,Wunderground v.1.15,2013-08-10 02:50:00,
2013-08-09 23:10:00,70.0,61.7,23.14,SW,228,1.0,1.0,75,0.00,,,0.00,0,Wunderground v.1.15,2013-08-10 03:10:00,
2013-08-09 23:20:00,69.5,61.6,23.14,WSW,250,1.0,1.0,76,0.00,,,0.00,0,Wunderground v.1.15,2013-08-10 03:20:00,
2013-08-09 23:40:00,68.7,61.6,23.14,West,261,1.0,2.0,78,0.00,,,0.00,0,Wunderground v.1.15,2013-08-10 03:40:00,
2013-08-09 23:50:00,68.2,61.1,23.14,WNW,290,1.0,1.0,78,0.00,,,0.00,0,Wunderground v.1.15,2013-08-10 03:50:00,